Time,TemperatureF,DewpointF,PressureIn,WindDirection,WindDirectionDegrees,WindSpeedMPH,WindSpeedGustMPH,Humidity,HourlyPrecipIn,Conditions,Clouds,dailyrainin,SoftwareType,DateUTC
2015-01-27 00:02:00,49.8,45.8,30.13,North,360,8.9,10.4,86,0.02,RA,,0.00,WeatherDisplay:10.37,2015-01-27 08:02:00,
2015-01-27 00:07:00,49.7,45.7,30.13,North,360,5.7,6.9,86,0.02,RA,,0.00,WeatherDisplay:10.37,2015-01-27 08:07:00,
2015-01-27 00:12:00,49.7,45.7,30.13,North,360,4.2,10.4,86,0.02,CLR,,0.00,WeatherDisplay:10.37,2015-01-27 08:12:00,
2015-01-27 00:17:00,49.8,45.8,30.13,NE,44,6.5,10.4,86,0.02,CLR,,0.00,WeatherDisplay:10.37,2015-01-27 08:17:00,
2015-01-27 00:22:00,49.8,45.8,30.12,NNE,15,7.2,10.4,86,0.02,CLR,,0.00,WeatherDisplay:10.37,2015-01-27 08:22:00,
2015-01-27 00:27:00,49.8,45.8,30.12,North,360,6.1,9.0,86,0.02,CLR,,0.00,WeatherDisplay:10.37,2015-01-27 08:27:00,
2015-01-27 00:32:00,49.8,45.8,30.13,NNE,27,5.7,11.5,86,0.02,CLR,,0.00,WeatherDisplay:10.37,2015-01-27 08:32:00,
2015-01-27 00:37:00,49.8,45.8,30.13,NNE,26,6.2,11.5,86,0.01,CLR,,0.00,WeatherDisplay:10.37,2015-01-27 08:37:00,
2015-01-27 00:42:00,49.8,45.8,30.13,NNE,33,5.7,9.2,86,0.00,CLR,,0.00,WeatherDisplay:10.37,2015-01-27 08:42:00,
2015-01-27 00:47:00,49.8,45.8,30.13,NNE,15,7.1,10.4,86,0.00,CLR,,0.00,WeatherDisplay:10.37,2015-01-27 08:47:00,
2015-01-27 00:52:00,49.8,45.8,30.13,NNE,29,6.2,10.4,86,0.00,CLR,,0.00,WeatherDisplay:10.37,2015-01-27 08:52:00,
2015-01-27 00:57:00,49.8,45.8,30.13,NNE,30,5.4,8.1,86,0.00,CLR,,0.00,WeatherDisplay:10.37,2015-01-27 08:57:00,
2015-01-27 01:02:00,49.9,45.9,30.13,NNE,30,4.4,6.9,86,0.00,CLR,,0.00,WeatherDisplay:10.37,2015-01-27 09:02:00,
2015-01-27 01:07:00,49.9,45.9,30.13,NNE,30,6.3,9.2,86,0.00,CLR,,0.00,WeatherDisplay:10.37,2015-01-27 09:07:00,
2015-01-27 01:12:00,50.0,46.0,30.13,North,360,5.2,6.9,86,0.00,CLR,,0.00,WeatherDisplay:10.37,2015-01-27 09:12:00,
2015-01-27 01:17:00,50.0,46.0,30.14,North,360,1.6,5.0,86,0.00,CLR,,0.00,WeatherDisplay:10.37,2015-01-27 09:17:00,
2015-01-27 01:22:00,50.0,46.0,30.14,North,360,4.2,5.8,86,0.00,CLR,,0.00,WeatherDisplay:10.37,2015-01-27 09:22:00,
2015-01-27 01:27:00,50.0,46.0,30.14,North,360,4.2,6.9,86,0.00,CLR,,0.00,WeatherDisplay:10.37,2015-01-27 09:27:00,
2015-01-27 01:32:00,50.0,46.0,30.14,North,360,5.5,6.9,86,0.00,CLR,,0.00,WeatherDisplay:10.37,2015-01-27 09:32:00,
2015-01-27 01:37:00,50.0,46.0,30.14,North,360,8.4,10.0,86,0.00,CLR,,0.00,WeatherDisplay:10.37,2015-01-27 09:37:00,
2015-01-27 01:42:00,50.1,46.1,30.14,North,360,7.1,10.4,86,0.00,CLR,,0.00,WeatherDisplay:10.37,2015-01-27 09:42:00,
2015-01-27 01:47:00,50.1,46.1,30.13,North,360,6.9,10.4,86,0.00,CLR,,0.00,WeatherDisplay:10.37,2015-01-27 09:47:00,
2015-01-27 01:52:00,50.1,46.1,30.13,North,360,7.2,8.1,86,0.00,CLR,,0.00,WeatherDisplay:10.37,2015-01-27 09:52:00,
2015-01-27 01:57:00,50.1,46.1,30.13,North,360,7.3,9.2,86,0.00,CLR,,0.00,WeatherDisplay:10.37,2015-01-27 09:57:00,
2015-01-27 02:02:00,50.1,46.1,30.13,North,360,6.9,9.2,86,0.00,CLR,,0.00,WeatherDisplay:10.37,2015-01-27 10:02:00,
2015-01-27 02:07:00,50.1,46.1,30.13,North,360,7.5,9.0,86,0.00,CLR,,0.00,WeatherDisplay:10.37,2015-01-27 10:07:00,
2015-01-27 02:12:00,50.1,46.1,30.14,North,360,5.8,8.0,86,0.00,CLR,,0.00,WeatherDisplay:10.37,2015-01-27 10:12:00,
2015-01-27 02:17:00,50.1,46.1,30.14,North,360,4.7,5.8,86,0.00,CLR,,0.00,WeatherDisplay:10.37,2015-01-27 10:17:00,
2015-01-27 02:22:00,50.1,46.1,30.14,North,360,6.1,9.0,86,0.00,CLR,,0.00,WeatherDisplay:10.37,2015-01-27 10:22:00,
2015-01-27 02:27:00,50.1,46.1,30.14,North,360,5.7,6.0,86,0.00,CLR,,0.00,WeatherDisplay:10.37,2015-01-27 10:27:00,
2015-01-27 02:32:00,50.0,46.0,30.14,North,360,5.8,8.1,86,0.00,CLR,,0.00,WeatherDisplay:10.37,2015-01-27 10:32:00,
2015-01-27 02:37:00,50.0,46.0,30.14,North,360,7.3,10.4,86,0.00,CLR,,0.00,WeatherDisplay:10.37,2015-01-27 10:37:00,
2015-01-27 02:42:00,50.0,45.7,30.13,North,360,8.6,13.0,85,0.00,CLR,,0.00,WeatherDisplay:10.37,2015-01-27 10:42:00,
2015-01-27 02:47:00,50.0,45.7,30.13,North,360,7.0,10.4,85,0.00,CLR,,0.00,WeatherDisplay:10.37,2015-01-27 10:47:00,
2015-01-27 02:52:00,50.0,45.7,30.13,NNE,29,8.5,12.0,85,0.00,CLR,,0.00,WeatherDisplay:10.37,2015-01-27 10:52:00,
2015-01-27 02:57:00,49.9,45.6,30.13,North,360,8.5,11.5,85,0.00,CLR,,0.00,WeatherDisplay:10.37,2015-01-27 10:57:00,
2015-01-27 03:02:00,49.9,45.6,30.13,NNE,32,7.6,10.4,85,0.00,CLR,,0.00,WeatherDisplay:10.37,2015-01-27 11:02:00,
2015-01-27 03:07:00,49.9,45.6,30.13,NNE,32,8.3,11.5,85,0.00,CLR,,0.00,WeatherDisplay:10.37,2015-01-27 11:07:00,
2015-01-27 03:12:00,49.9,45.6,30.14,NNE,32,5.9,10.4,85,0.00,CLR,,0.00,WeatherDisplay:10.37,2015-01-27 11:12:00,
2015-01-27 03:17:00,49.9,45.6,30.14,NNE,32,4.4,5.8,85,0.00,CLR,,0.00,WeatherDisplay:10.37,2015-01-27 11:17:00,
2015-01-27 03:22:00,49.9,45.6,30.14,NNE,32,3.7,6.0,85,0.00,CLR,,0.00,WeatherDisplay:10.37,2015-01-27 11:22:00,
2015-01-27 03:27:00,49.9,45.6,30.14,NNE,32,2.3,3.5,85,0.00,CLR,,0.00,WeatherDisplay:10.37,2015-01-27 11:27:00,
2015-01-27 03:32:00,49.8,45.5,30.14,NNE,32,3.0,3.5,85,0.00,CLR,,0.00,WeatherDisplay:10.37,2015-01-27 11:32:00,
2015-01-27 03:37:00,49.6,45.3,30.14,NNE,32,2.9,5.8,85,0.00,CLR,,0.00,WeatherDisplay:10.37,2015-01-27 11:37:00,
2015-01-27 03:42:00,49.5,45.2,30.15,NNE,32,2.3,4.0,85,0.00,CLR,,0.00,WeatherDisplay:10.37,2015-01-27 11:42:00,
2015-01-27 03:47:00,49.5,45.2,30.14,NNE,32,3.3,4.6,85,0.00,CLR,,0.00,WeatherDisplay:10.37,2015-01-27 11:47:00,
2015-01-27 03:52:00,49.5,45.2,30.15,NNE,32,3.3,5.8,85,0.00,CLR,,0.00,WeatherDisplay:10.37,2015-01-27 11:52:00,
2015-01-27 03:57:00,49.6,45.3,30.15,NNE,32,4.3,6.0,85,0.00,CLR,,0.00,WeatherDisplay:10.37,2015-01-27 11:57:00,
2015-01-27 04:02:00,49.6,45.3,30.15,NNE,32,4.5,10.4,85,0.00,CLR,,0.00,WeatherDisplay:10.37,2015-01-27 12:02:00,
2015-01-27 04:07:00,49.6,45.3,30.15,NNE,32,7.7,11.5,85,0.00,CLR,,0.00,WeatherDisplay:10.37,2015-01-27 12:07:00,
2015-01-27 04:12:00,49.6,45.3,30.15,NNE,32,4.9,8.1,85,0.00,CLR,,0.00,WeatherDisplay:10.37,2015-01-27 12:12:00,
2015-01-27 04:17:00,49.5,45.2,30.15,NNE,32,6.9,9.0,85,0.00,CLR,,0.00,WeatherDisplay:10.37,2015-01-27 12:17:00,
2015-01-27 04:22:00,49.5,45.2,30.15,NNE,32,4.5,5.8,85,0.00,CLR,,0.00,WeatherDisplay:10.37,2015-01-27 12:22:00,
2015-01-27 04:27:00,49.5,45.2,30.15,NNE,32,5.1,5.8,85,0.00,CLR,,0.00,WeatherDisplay:10.37,2015-01-27 12:27:00,
2015-01-27 04:32:00,49.5,45.2,30.15,NNE,32,4.0,4.6,85,0.00,CLR,,0.00,WeatherDisplay:10.37,2015-01-27 12:32:00,
2015-01-27 04:37:00,49.5,45.2,30.15,NNE,32,4.8,6.0,85,0.00,CLR,,0.00,WeatherDisplay:10.37,2015-01-27 12:37:00,
2015-01-27 04:42:00,49.4,45.1,30.15,NNE,32,4.1,6.0,85,0.00,CLR,,0.00,WeatherDisplay:10.37,2015-01-27 12:42:00,
2015-01-27 04:47:00,49.2,44.9,30.15,NNE,32,6.3,9.2,85,0.00,CLR,,0.00,WeatherDisplay:10.37,2015-01-27 12:47:00,
2015-01-27 04:52:00,49.2,44.9,30.15,NNE,32,7.3,9.2,85,0.00,CLR,,0.00,WeatherDisplay:10.37,2015-01-27 12:52:00,
2015-01-27 04:57:00,49.2,44.9,30.15,NNE,32,6.2,6.9,85,0.00,CLR,,0.00,WeatherDisplay:10.37,2015-01-27 12:57:00,
2015-01-27 05:02:00,49.1,44.8,30.16,NNE,32,7.6,10.4,85,0.00,CLR,,0.00,WeatherDisplay:10.37,2015-01-27 13:02:00,
2015-01-27 05:07:00,49.0,44.7,30.15,NNE,32,6.1,7.0,85,0.00,CLR,,0.00,WeatherDisplay:10.37,2015-01-27 13:07:00,
2015-01-27 05:12:00,49.0,45.0,30.15,NNE,32,7.0,10.4,86,0.00,CLR,,0.00,WeatherDisplay:10.37,2015-01-27 13:12:00,
2015-01-27 05:17:00,48.9,44.9,30.15,NNE,32,6.2,7.0,86,0.00,CLR,,0.00,WeatherDisplay:10.37,2015-01-27 13:17:00,
2015-01-27 05:22:00,48.8,44.8,30.16,NNE,32,3.1,5.8,86,0.00,CLR,,0.00,WeatherDisplay:10.37,2015-01-27 13:22:00,
2015-01-27 05:27:00,48.8,44.8,30.16,NNE,32,4.0,5.8,86,0.00,CLR,,0.00,WeatherDisplay:10.37,2015-01-27 13:27:00,
2015-01-27 05:32:00,48.8,44.8,30.16,NNE,32,2.2,3.5,86,0.00,CLR,,0.00,WeatherDisplay:10.37,2015-01-27 13:32:00,
2015-01-27 05:37:00,48.7,44.7,30.16,NNE,32,2.2,3.5,86,0.00,CLR,,0.00,WeatherDisplay:10.37,2015-01-27 13:37:00,
2015-01-27 05:42:00,48.7,44.7,30.17,NNE,32,0.0,3.5,86,0.00,CLR,,0.00,WeatherDisplay:10.37,2015-01-27 13:42:00,
2015-01-27 05:47:00,48.7,44.7,30.17,NNE,32,0.0,0.0,86,0.00,CLR,,0.00,WeatherDisplay:10.37,2015-01-27 13:47:00,
2015-01-27 05:52:00,48.7,44.7,30.17,NNE,32,2.3,4.0,86,0.00,CLR,,0.00,WeatherDisplay:10.37,2015-01-27 13:52:00,
2015-01-27 05:57:00,48.7,44.7,30.17,NNE,32,0.9,3.5,86,0.00,CLR,,0.00,WeatherDisplay:10.37,2015-01-27 13:57:00,
2015-01-27 06:02:00,48.7,44.7,30.17,NNE,32,0.7,2.3,86,0.00,CLR,,0.00,WeatherDisplay:10.37,2015-01-27 14:02:00,
2015-01-27 06:07:00,48.7,44.7,30.17,NNE,32,0.9,2.0,86,0.00,CLR,,0.00,WeatherDisplay:10.37,2015-01-27 14:07:00,
2015-01-27 06:12:00,48.7,44.7,30.17,NNE,32,2.4,3.5,86,0.00,CLR,,0.00,WeatherDisplay:10.37,2015-01-27 14:12:00,
2015-01-27 06:17:00,48.6,44.6,30.17,NNE,32,2.3,4.6,86,0.00,CLR,,0.00,WeatherDisplay:10.37,2015-01-27 14:17:00,
2015-01-27 06:22:00,48.6,44.6,30.17,NNE,32,3.1,3.5,86,0.00,CLR,,0.00,WeatherDisplay:10.37,2015-01-27 14:22:00,
2015-01-27 06:27:00,48.6,44.6,30.18,NNE,32,1.6,3.5,86,0.00,CLR,,0.00,WeatherDisplay:10.37,2015-01-27 14:27:00,
2015-01-27 06:32:00,48.6,44.6,30.18,NNE,32,1.8,3.5,86,0.00,CLR,,0.00,WeatherDisplay:10.37,2015-01-27 14:32:00,
2015-01-27 06:37:00,48.6,44.9,30.18,NNE,32,1.8,3.5,87,0.00,CLR,,0.00,WeatherDisplay:10.37,2015-01-27 14:37:00,
2015-01-27 06:42:00,48.6,44.9,30.18,NNE,32,2.1,3.5,87,0.00,CLR,,0.00,WeatherDisplay:10.37,2015-01-27 14:42:00,
2015-01-27 06:47:00,48.6,44.9,30.19,NNE,32,0.0,1.2,87,0.00,CLR,,0.00,WeatherDisplay:10.37,2015-01-27 14:47:00,
2015-01-27 06:52:00,48.6,44.9,30.19,NNE,32,0.5,3.5,87,0.00,CLR,,0.00,WeatherDisplay:10.37,2015-01-27 14:52:00,
2015-01-27 06:57:00,48.6,44.9,30.19,NNE,32,0.0,0.0,87,0.00,CLR,,0.00,WeatherDisplay:10.37,2015-01-27 14:57:00,
2015-01-27 07:02:00,48.6,44.9,30.19,NNE,32,0.0,0.0,87,0.00,CLR,,0.00,WeatherDisplay:10.37,2015-01-27 15:02:00,
2015-01-27 07:07:00,48.7,45.0,30.19,NNE,32,1.5,3.5,87,0.00,CLR,,0.00,WeatherDisplay:10.37,2015-01-27 15:07:00,
2015-01-27 07:12:00,48.7,45.0,30.20,NNE,32,0.0,0.0,87,0.00,CLR,,0.00,WeatherDisplay:10.37,2015-01-27 15:12:00,
2015-01-27 07:17:00,48.7,45.0,30.20,NNE,32,0.0,0.0,87,0.00,CLR,,0.00,WeatherDisplay:10.37,2015-01-27 15:17:00,
2015-01-27 07:22:00,48.7,45.0,30.20,NNE,32,0.0,0.0,87,0.00,CLR,,0.00,WeatherDisplay:10.37,2015-01-27 15:22:00,
2015-01-27 07:27:00,48.8,45.1,30.20,NNE,32,1.9,3.5,87,0.00,CLR,,0.00,WeatherDisplay:10.37,2015-01-27 15:27:00,
2015-01-27 07:32:00,48.8,45.1,30.20,NNE,32,2.2,3.5,87,0.00,CLR,,0.00,WeatherDisplay:10.37,2015-01-27 15:32:00,
2015-01-27 07:37:00,48.8,45.1,30.20,NNE,32,0.8,3.5,87,0.00,CLR,,0.00,WeatherDisplay:10.37,2015-01-27 15:37:00,
2015-01-27 07:42:00,48.8,45.1,30.20,NNE,32,2.2,3.5,87,0.00,CLR,,0.00,WeatherDisplay:10.37,2015-01-27 15:42:00,
2015-01-27 07:47:00,48.9,45.2,30.21,NNE,32,1.2,3.5,87,0.00,CLR,,0.00,WeatherDisplay:10.37,2015-01-27 15:47:00,
2015-01-27 07:52:00,48.9,45.2,30.21,NNE,32,2.6,3.5,87,0.00,CLR,,0.00,WeatherDisplay:10.37,2015-01-27 15:52:00,
2015-01-27 07:57:00,49.0,45.3,30.21,NNE,32,3.5,5.0,87,0.00,CLR,,0.00,WeatherDisplay:10.37,2015-01-27 15:57:00,
2015-01-27 08:02:00,49.0,45.3,30.21,NNE,32,3.8,5.0,87,0.00,CLR,,0.00,WeatherDisplay:10.37,2015-01-27 16:02:00,
2015-01-27 08:07:00,49.0,45.3,30.22,NNE,32,2.9,4.0,87,0.00,CLR,,0.00,WeatherDisplay:10.37,2015-01-27 16:07:00,
2015-01-27 08:12:00,49.0,45.3,30.22,NNE,32,1.4,4.0,87,0.00,CLR,,0.00,WeatherDisplay:10.37,2015-01-27 16:12:00,
2015-01-27 08:17:00,49.1,45.4,30.22,NNE,32,3.4,4.0,87,0.00,CLR,,0.00,WeatherDisplay:10.37,2015-01-27 16:17:00,
2015-01-27 08:22:00,49.2,45.5,30.22,NNE,32,3.1,3.5,87,0.00,CLR,,0.00,WeatherDisplay:10.37,2015-01-27 16:22:00,
2015-01-27 08:27:00,49.2,45.5,30.22,NNE,32,2.4,3.5,87,0.00,CLR,,0.00,WeatherDisplay:10.37,2015-01-27 16:27:00,
2015-01-27 08:32:00,49.2,45.5,30.22,NNE,32,3.0,4.0,87,0.00,CLR,,0.00,WeatherDisplay:10.37,2015-01-27 16:32:00,
2015-01-27 08:37:00,49.4,45.7,30.22,NNE,32,4.3,5.0,87,0.00,CLR,,0.00,WeatherDisplay:10.37,2015-01-27 16:37:00,
2015-01-27 08:42:00,49.4,46.0,30.22,NNE,32,3.0,4.6,88,0.00,CLR,,0.00,WeatherDisplay:10.37,2015-01-27 16:42:00,
2015-01-27 08:47:00,49.5,46.1,30.22,NNE,32,1.6,3.5,88,0.00,CLR,,0.00,WeatherDisplay:10.37,2015-01-27 16:47:00,
2015-01-27 08:52:00,49.5,46.1,30.22,NNE,32,3.2,4.0,88,0.00,CLR,,0.00,WeatherDisplay:10.37,2015-01-27 16:52:00,
2015-01-27 08:57:00,49.6,46.2,30.22,NNE,32,0.7,3.5,88,0.00,CLR,,0.00,WeatherDisplay:10.37,2015-01-27 16:57:00,
2015-01-27 09:02:00,49.6,46.2,30.22,NNE,32,1.7,3.5,88,0.01,RA,,0.01,WeatherDisplay:10.37,2015-01-27 17:02:00,
2015-01-27 09:07:00,49.8,46.4,30.22,NNE,32,2.7,4.0,88,0.01,RA,,0.01,WeatherDisplay:10.37,2015-01-27 17:07:00,
2015-01-27 09:12:00,49.9,46.5,30.22,NNE,32,4.0,5.0,88,0.01,,,0.01,WeatherDisplay:10.37,2015-01-27 17:12:00,
2015-01-27 09:17:00,50.1,46.7,30.22,NNE,32,3.8,4.6,88,0.01,CLR,,0.01,WeatherDisplay:10.37,2015-01-27 17:17:00,
2015-01-27 09:22:00,50.1,46.7,30.23,NNE,32,5.3,6.0,88,0.01,CLR,,0.01,WeatherDisplay:10.37,2015-01-27 17:22:00,
2015-01-27 09:27:00,50.1,46.7,30.23,NNE,32,4.3,5.8,88,0.01,CLR,,0.01,WeatherDisplay:10.37,2015-01-27 17:27:00,
2015-01-27 09:32:00,50.3,46.9,30.23,NNE,32,5.3,5.8,88,0.01,CLR,,0.01,WeatherDisplay:10.37,2015-01-27 17:32:00,
2015-01-27 09:37:00,50.4,47.0,30.23,NNE,32,3.0,3.5,88,0.01,CLR,,0.01,WeatherDisplay:10.37,2015-01-27 17:37:00,
2015-01-27 09:42:00,50.7,47.3,30.23,NNE,32,5.4,6.0,88,0.01,CLR,,0.01,WeatherDisplay:10.37,2015-01-27 17:42:00,
2015-01-27 09:47:00,50.9,47.5,30.23,NNE,32,5.6,7.0,88,0.01,CLR,,0.01,WeatherDisplay:10.37,2015-01-27 17:47:00,
2015-01-27 09:52:00,50.9,47.2,30.23,NNE,32,5.4,6.9,87,0.01,CLR,,0.01,WeatherDisplay:10.37,2015-01-27 17:52:00,
2015-01-27 09:57:00,51.0,47.6,30.23,NNE,32,5.0,6.0,88,0.01,CLR,,0.01,WeatherDisplay:10.37,2015-01-27 17:57:00,
2015-01-27 10:02:00,51.2,47.5,30.23,NNE,32,5.1,7.0,87,0.00,CLR,,0.01,WeatherDisplay:10.37,2015-01-27 18:02:00,
2015-01-27 10:07:00,51.0,47.3,30.23,NNE,32,5.3,5.8,87,0.00,CLR,,0.01,WeatherDisplay:10.37,2015-01-27 18:07:00,
2015-01-27 10:12:00,51.3,47.6,30.23,NNE,32,5.6,5.8,87,0.00,CLR,,0.01,WeatherDisplay:10.37,2015-01-27 18:12:00,
2015-01-27 10:17:00,51.4,47.7,30.23,NNE,32,5.4,6.9,87,0.00,CLR,,0.01,WeatherDisplay:10.37,2015-01-27 18:17:00,
2015-01-27 10:22:00,52.0,48.3,30.23,NNE,32,4.2,6.9,87,0.00,CLR,,0.01,WeatherDisplay:10.37,2015-01-27 18:22:00,
2015-01-27 10:27:00,52.1,48.3,30.23,NNE,32,5.1,7.0,87,0.00,CLR,,0.01,WeatherDisplay:10.37,2015-01-27 18:27:00,
2015-01-27 10:32:00,52.3,48.5,30.23,NNE,32,3.4,4.6,87,0.00,CLR,,0.01,WeatherDisplay:10.37,2015-01-27 18:32:00,
2015-01-27 10:37:00,52.3,48.2,30.23,NNE,32,4.2,5.8,86,0.00,CLR,,0.01,WeatherDisplay:10.37,2015-01-27 18:37:00,
2015-01-27 10:42:00,52.4,48.3,30.23,NNE,32,5.3,6.9,86,0.00,CLR,,0.01,WeatherDisplay:10.37,2015-01-27 18:42:00,
2015-01-27 10:47:00,52.4,48.3,30.23,NNE,32,5.2,7.0,86,0.00,CLR,,0.01,WeatherDisplay:10.37,2015-01-27 18:47:00,
2015-01-27 10:52:00,52.5,48.1,30.22,NNE,32,5.0,6.0,85,0.00,CLR,,0.01,WeatherDisplay:10.37,2015-01-27 18:52:00,
2015-01-27 10:57:00,52.7,48.3,30.22,NNE,32,4.9,5.8,85,0.00,CLR,,0.01,WeatherDisplay:10.37,2015-01-27 18:57:00,
2015-01-27 11:02:00,52.8,48.4,30.22,NNE,32,4.5,6.0,85,0.00,CLR,,0.01,WeatherDisplay:10.37,2015-01-27 19:02:00,
2015-01-27 11:07:00,52.8,48.1,30.22,NNE,32,3.2,5.8,84,0.00,CLR,,0.01,WeatherDisplay:10.37,2015-01-27 19:07:00,
2015-01-27 11:12:00,53.4,48.7,30.22,NNE,32,5.3,6.9,84,0.00,CLR,,0.01,WeatherDisplay:10.37,2015-01-27 19:12:00,
2015-01-27 11:17:00,53.5,48.5,30.22,NNE,32,5.2,6.9,83,0.00,CLR,,0.01,WeatherDisplay:10.37,2015-01-27 19:17:00,
2015-01-27 11:22:00,53.3,48.3,30.22,NNE,32,4.3,6.9,83,0.00,CLR,,0.01,WeatherDisplay:10.37,2015-01-27 19:22:00,
2015-01-27 11:27:00,53.3,47.9,30.21,NNE,32,3.3,3.5,82,0.00,CLR,,0.01,WeatherDisplay:10.37,2015-01-27 19:27:00,
2015-01-27 11:32:00,53.6,48.2,30.21,NNE,32,0.1,2.3,82,0.00,CLR,,0.01,WeatherDisplay:10.37,2015-01-27 19:32:00,
2015-01-27 11:37:00,54.0,48.6,30.21,NNE,32,3.9,5.0,82,0.00,CLR,,0.01,WeatherDisplay:10.37,2015-01-27 19:37:00,
2015-01-27 11:42:00,54.1,48.4,30.21,NNE,32,1.7,3.5,81,0.00,CLR,,0.01,WeatherDisplay:10.37,2015-01-27 19:42:00,
2015-01-27 11:47:00,54.4,48.4,30.21,NNE,32,2.1,3.5,80,0.00,CLR,,0.01,WeatherDisplay:10.37,2015-01-27 19:47:00,
2015-01-27 11:52:00,54.6,48.6,30.20,NNE,32,2.3,4.6,80,0.00,CLR,,0.01,WeatherDisplay:10.37,2015-01-27 19:52:00,
2015-01-27 11:57:00,54.6,48.2,30.20,NNE,32,1.5,3.5,79,0.00,CLR,,0.01,WeatherDisplay:10.37,2015-01-27 19:57:00,
2015-01-27 12:02:00,55.0,48.3,30.20,NNE,32,0.0,0.0,78,0.00,CLR,,0.01,WeatherDisplay:10.37,2015-01-27 20:02:00,
2015-01-27 12:07:00,55.3,48.2,30.20,NNE,32,1.2,2.0,77,0.00,CLR,,0.01,WeatherDisplay:10.37,2015-01-27 20:07:00,
2015-01-27 12:12:00,55.5,47.7,30.20,NNE,32,0.0,0.0,75,0.00,CLR,,0.01,WeatherDisplay:10.37,2015-01-27 20:12:00,
2015-01-27 12:17:00,56.1,47.6,30.20,NNE,32,2.1,3.0,73,0.00,CLR,,0.01,WeatherDisplay:10.37,2015-01-27 20:17:00,
2015-01-27 12:22:00,56.0,46.7,30.19,NNE,32,1.8,5.0,71,0.00,CLR,,0.01,WeatherDisplay:10.37,2015-01-27 20:22:00,
2015-01-27 12:27:00,55.8,46.5,30.19,NNE,32,0.7,2.3,71,0.00,CLR,,0.01,WeatherDisplay:10.37,2015-01-27 20:27:00,
2015-01-27 12:32:00,55.8,46.2,30.19,NNE,32,2.0,3.5,70,0.00,CLR,,0.01,WeatherDisplay:10.37,2015-01-27 20:32:00,
2015-01-27 12:37:00,55.9,46.3,30.19,NNE,32,0.1,1.2,70,0.00,CLR,,0.01,WeatherDisplay:10.37,2015-01-27 20:37:00,
2015-01-27 12:42:00,56.0,46.4,30.19,NNE,32,0.6,2.3,70,0.00,CLR,,0.01,WeatherDisplay:10.37,2015-01-27 20:42:00,
2015-01-27 12:47:00,56.0,46.4,30.19,NNE,32,0.0,0.0,70,0.00,CLR,,0.01,WeatherDisplay:10.37,2015-01-27 20:47:00,
2015-01-27 12:52:00,56.0,46.0,30.19,NNE,32,2.2,3.0,69,0.00,CLR,,0.01,WeatherDisplay:10.37,2015-01-27 20:52:00,
2015-01-27 12:57:00,56.0,46.0,30.19,NNE,32,1.1,2.3,69,0.00,CLR,,0.01,WeatherDisplay:10.37,2015-01-27 20:57:00,
2015-01-27 13:02:00,56.0,46.0,30.18,NNE,32,1.0,2.3,69,0.00,CLR,,0.01,WeatherDisplay:10.37,2015-01-27 21:02:00,
2015-01-27 13:07:00,56.1,46.1,30.18,NNE,32,1.5,3.5,69,0.00,CLR,,0.01,WeatherDisplay:10.37,2015-01-27 21:07:00,
2015-01-27 13:12:00,56.4,46.4,30.18,NNE,32,0.0,0.0,69,0.00,CLR,,0.01,WeatherDisplay:10.37,2015-01-27 21:12:00,
2015-01-27 13:17:00,56.9,46.8,30.18,NNE,32,0.9,3.5,69,0.00,CLR,,0.01,WeatherDisplay:10.37,2015-01-27 21:17:00,
2015-01-27 13:22:00,57.1,46.6,30.18,NNE,32,0.8,2.3,68,0.00,CLR,,0.01,WeatherDisplay:10.37,2015-01-27 21:22:00,
2015-01-27 13:27:00,57.3,46.8,30.18,NNE,32,1.2,2.3,68,0.00,CLR,,0.01,WeatherDisplay:10.37,2015-01-27 21:27:00,
2015-01-27 13:32:00,57.4,46.9,30.18,NNE,32,2.7,3.5,68,0.00,CLR,,0.01,WeatherDisplay:10.37,2015-01-27 21:32:00,
2015-01-27 13:37:00,57.1,46.6,30.18,NNE,32,3.4,4.6,68,0.00,CLR,,0.01,WeatherDisplay:10.37,2015-01-27 21:37:00,
2015-01-27 13:42:00,56.9,46.8,30.18,NNE,32,0.9,3.0,69,0.00,CLR,,0.01,WeatherDisplay:10.37,2015-01-27 21:42:00,
2015-01-27 13:47:00,57.0,46.9,30.18,NNE,32,0.0,0.0,69,0.00,CLR,,0.01,WeatherDisplay:10.37,2015-01-27 21:47:00,
2015-01-27 13:52:00,57.4,46.9,30.18,NNE,32,2.1,3.5,68,0.00,CLR,,0.01,WeatherDisplay:10.37,2015-01-27 21:52:00,
2015-01-27 13:57:00,57.4,46.9,30.18,NNE,32,1.8,3.5,68,0.00,CLR,,0.01,WeatherDisplay:10.37,2015-01-27 21:57:00,
2015-01-27 14:02:00,57.5,46.6,30.18,NNE,32,1.9,4.0,67,0.00,CLR,,0.01,WeatherDisplay:10.37,2015-01-27 22:02:00,
2015-01-27 14:07:00,57.6,46.7,30.18,NNE,32,1.9,3.5,67,0.00,CLR,,0.01,WeatherDisplay:10.37,2015-01-27 22:07:00,
2015-01-27 14:12:00,58.2,47.3,30.18,NNE,32,0.9,3.5,67,0.00,CLR,,0.01,WeatherDisplay:10.37,2015-01-27 22:12:00,
2015-01-27 14:17:00,58.1,47.2,30.18,NNE,32,2.0,3.5,67,0.00,CLR,,0.01,WeatherDisplay:10.37,2015-01-27 22:17:00,
2015-01-27 14:22:00,57.9,46.6,30.18,NNE,32,0.5,2.3,66,0.00,CLR,,0.01,WeatherDisplay:10.37,2015-01-27 22:22:00,
2015-01-27 14:27:00,57.6,46.7,30.18,NNE,32,1.9,3.5,67,0.00,CLR,,0.01,WeatherDisplay:10.37,2015-01-27 22:27:00,
2015-01-27 14:32:00,57.4,46.5,30.18,NNE,32,0.0,0.0,67,0.00,CLR,,0.01,WeatherDisplay:10.37,2015-01-27 22:32:00,
2015-01-27 14:37:00,57.3,46.0,30.18,NNE,32,0.0,0.0,66,0.00,CLR,,0.01,WeatherDisplay:10.37,2015-01-27 22:37:00,
2015-01-27 14:42:00,57.6,46.3,30.18,NNE,32,0.0,0.0,66,0.00,CLR,,0.01,WeatherDisplay:10.37,2015-01-27 22:42:00,
2015-01-27 14:47:00,57.5,46.6,30.18,NNE,32,4.5,5.8,67,0.00,CLR,,0.01,WeatherDisplay:10.37,2015-01-27 22:47:00,
2015-01-27 14:52:00,57.4,46.5,30.18,NNE,32,0.9,3.0,67,0.00,CLR,,0.01,WeatherDisplay:10.37,2015-01-27 22:52:00,
2015-01-27 14:57:00,57.3,46.8,30.18,NNE,32,4.5,5.8,68,0.00,CLR,,0.01,WeatherDisplay:10.37,2015-01-27 22:57:00,
2015-01-27 15:02:00,57.1,47.0,30.18,NNE,32,5.0,6.9,69,0.00,CLR,,0.01,WeatherDisplay:10.37,2015-01-27 23:02:00,
2015-01-27 15:07:00,57.2,47.1,30.18,NNE,32,3.5,5.8,69,0.00,CLR,,0.01,WeatherDisplay:10.37,2015-01-27 23:07:00,
2015-01-27 15:12:00,57.1,47.0,30.18,NNE,32,4.3,5.0,69,0.00,CLR,,0.01,WeatherDisplay:10.37,2015-01-27 23:12:00,
2015-01-27 15:17:00,57.2,47.1,30.18,NNE,32,2.6,3.5,69,0.00,CLR,,0.01,WeatherDisplay:10.37,2015-01-27 23:17:00,
2015-01-27 15:22:00,57.3,47.2,30.17,NNE,32,2.3,3.5,69,0.00,CLR,,0.01,WeatherDisplay:10.37,2015-01-27 23:22:00,
2015-01-27 15:27:00,57.1,47.0,30.17,NNE,32,3.0,4.6,69,0.00,CLR,,0.01,WeatherDisplay:10.37,2015-01-27 23:27:00,
2015-01-27 15:32:00,57.0,46.9,30.18,NNE,32,2.7,4.6,69,0.00,CLR,,0.01,WeatherDisplay:10.37,2015-01-27 23:32:00,
2015-01-27 15:37:00,57.0,46.9,30.18,NNE,32,1.6,3.5,69,0.00,CLR,,0.01,WeatherDisplay:10.37,2015-01-27 23:37:00,
2015-01-27 15:42:00,56.9,46.8,30.18,NNE,32,1.4,3.5,69,0.00,CLR,,0.01,WeatherDisplay:10.37,2015-01-27 23:42:00,
2015-01-27 15:47:00,56.8,46.7,30.18,NNE,32,3.0,4.0,69,0.00,CLR,,0.01,WeatherDisplay:10.37,2015-01-27 23:47:00,
2015-01-27 15:52:00,56.8,46.7,30.18,NNE,32,2.4,3.5,69,0.00,CLR,,0.01,WeatherDisplay:10.37,2015-01-27 23:52:00,
2015-01-27 15:57:00,57.0,46.9,30.18,NNE,32,1.2,3.0,69,0.00,CLR,,0.01,WeatherDisplay:10.37,2015-01-27 23:57:00,
2015-01-27 16:02:00,57.8,47.3,30.18,NNE,32,1.2,3.5,68,0.00,CLR,,0.01,WeatherDisplay:10.37,2015-01-28 00:02:00,
2015-01-27 16:07:00,58.0,47.1,30.18,NNE,32,1.9,4.6,67,0.00,CLR,,0.01,WeatherDisplay:10.37,2015-01-28 00:07:00,
2015-01-27 16:12:00,58.0,47.1,30.18,NNE,32,0.0,0.0,67,0.00,CLR,,0.01,WeatherDisplay:10.37,2015-01-28 00:12:00,
2015-01-27 16:17:00,58.0,47.1,30.18,NNE,32,1.6,3.5,67,0.00,CLR,,0.01,WeatherDisplay:10.37,2015-01-28 00:17:00,
2015-01-27 16:22:00,57.6,47.1,30.18,NNE,32,3.2,5.0,68,0.00,CLR,,0.01,WeatherDisplay:10.37,2015-01-28 00:22:00,
2015-01-27 16:27:00,57.3,46.8,30.18,NNE,32,1.7,3.5,68,0.00,CLR,,0.01,WeatherDisplay:10.37,2015-01-28 00:27:00,
2015-01-27 16:32:00,57.1,47.0,30.18,NNE,32,2.7,3.5,69,0.00,CLR,,0.01,WeatherDisplay:10.37,2015-01-28 00:32:00,
2015-01-27 16:37:00,56.9,46.8,30.18,NNE,32,1.1,3.5,69,0.00,CLR,,0.01,WeatherDisplay:10.37,2015-01-28 00:37:00,
2015-01-27 16:42:00,56.8,47.1,30.18,NNE,32,0.9,3.5,70,0.00,CLR,,0.01,WeatherDisplay:10.37,2015-01-28 00:42:00,
2015-01-27 16:47:00,56.7,47.4,30.18,NNE,32,0.7,2.0,71,0.00,CLR,,0.01,WeatherDisplay:10.37,2015-01-28 00:47:00,
2015-01-27 16:52:00,56.6,47.3,30.18,NNE,32,2.7,4.0,71,0.00,CLR,,0.01,WeatherDisplay:10.37,2015-01-28 00:52:00,
2015-01-27 16:57:00,56.5,47.2,30.18,NNE,32,1.0,3.5,71,0.00,CLR,,0.01,WeatherDisplay:10.37,2015-01-28 00:57:00,
2015-01-27 17:02:00,56.4,47.5,30.18,NNE,32,0.0,0.0,72,0.00,CLR,,0.01,WeatherDisplay:10.37,2015-01-28 01:02:00,
2015-01-27 17:07:00,56.3,47.4,30.18,NNE,32,0.0,0.0,72,0.00,CLR,,0.01,WeatherDisplay:10.37,2015-01-28 01:07:00,
2015-01-27 17:12:00,56.2,47.3,30.18,NNE,32,0.0,0.0,72,0.00,CLR,,0.01,WeatherDisplay:10.37,2015-01-28 01:12:00,
2015-01-27 17:17:00,56.1,47.2,30.18,NNE,32,0.0,0.0,72,0.00,CLR,,0.01,WeatherDisplay:10.37,2015-01-28 01:17:00,
2015-01-27 17:22:00,56.0,47.1,30.18,NNE,32,0.0,0.0,72,0.00,CLR,,0.01,WeatherDisplay:10.37,2015-01-28 01:22:00,
2015-01-27 17:27:00,55.8,46.9,30.18,NNE,32,0.0,0.0,72,0.00,CLR,,0.01,WeatherDisplay:10.37,2015-01-28 01:27:00,
2015-01-27 17:32:00,55.8,46.9,30.18,NNE,32,0.0,0.0,72,0.00,CLR,,0.01,WeatherDisplay:10.37,2015-01-28 01:32:00,
2015-01-27 17:37:00,55.6,46.7,30.18,NNE,32,0.0,0.0,72,0.00,CLR,,0.01,WeatherDisplay:10.37,2015-01-28 01:37:00,
2015-01-27 17:42:00,55.4,46.9,30.18,NNE,32,2.1,3.0,73,0.00,CLR,,0.01,WeatherDisplay:10.37,2015-01-28 01:42:00,
2015-01-27 17:47:00,55.0,46.9,30.18,NNE,32,2.7,4.0,74,0.00,CLR,,0.01,WeatherDisplay:10.37,2015-01-28 01:47:00,
2015-01-27 17:52:00,54.6,46.8,30.18,NNE,32,2.6,3.5,75,0.00,CLR,,0.01,WeatherDisplay:10.37,2015-01-28 01:52:00,
2015-01-27 17:57:00,54.5,46.7,30.18,NNE,32,0.2,3.5,75,0.00,CLR,,0.01,WeatherDisplay:10.37,2015-01-28 01:57:00,
2015-01-27 18:02:00,54.5,47.1,30.18,NNE,32,0.0,0.0,76,0.00,CLR,,0.01,WeatherDisplay:10.37,2015-01-28 02:02:00,
2015-01-27 18:07:00,54.5,47.1,30.18,NNE,32,0.0,0.0,76,0.00,CLR,,0.01,WeatherDisplay:10.37,2015-01-28 02:07:00,
2015-01-27 18:12:00,54.4,47.0,30.18,NNE,32,0.0,0.0,76,0.00,CLR,,0.01,WeatherDisplay:10.37,2015-01-28 02:12:00,
2015-01-27 18:17:00,54.1,46.7,30.18,NNE,32,0.0,0.0,76,0.00,CLR,,0.01,WeatherDisplay:10.37,2015-01-28 02:17:00,
2015-01-27 18:22:00,53.7,46.7,30.18,NNE,32,0.0,0.0,77,0.00,CLR,,0.01,WeatherDisplay:10.37,2015-01-28 02:22:00,
2015-01-27 18:27:00,53.5,46.5,30.18,NNE,32,0.0,0.0,77,0.00,CLR,,0.01,WeatherDisplay:10.37,2015-01-28 02:27:00,
2015-01-27 18:32:00,53.3,46.6,30.18,NNE,32,0.0,0.0,78,0.00,CLR,,0.01,WeatherDisplay:10.37,2015-01-28 02:32:00,
2015-01-27 18:37:00,53.1,46.4,30.19,NNE,32,0.0,0.0,78,0.00,CLR,,0.01,WeatherDisplay:10.37,2015-01-28 02:37:00,
2015-01-27 18:42:00,52.9,46.2,30.19,NNE,32,0.0,0.0,78,0.00,CLR,,0.01,WeatherDisplay:10.37,2015-01-28 02:42:00,
2015-01-27 18:47:00,52.8,46.5,30.19,NNE,32,0.0,0.0,79,0.00,CLR,,0.01,WeatherDisplay:10.37,2015-01-28 02:47:00,
2015-01-27 18:52:00,52.5,46.2,30.19,NNE,32,0.0,0.0,79,0.00,CLR,,0.01,WeatherDisplay:10.37,2015-01-28 02:52:00,
2015-01-27 18:57:00,52.2,45.9,30.19,NNE,32,0.0,0.0,79,0.00,CLR,,0.01,WeatherDisplay:10.37,2015-01-28 02:57:00,
2015-01-27 19:02:00,51.9,45.6,30.19,NNE,32,0.0,0.0,79,0.00,CLR,,0.01,WeatherDisplay:10.37,2015-01-28 03:02:00,
2015-01-27 19:07:00,51.7,45.7,30.19,NNE,32,0.0,0.0,80,0.00,CLR,,0.01,WeatherDisplay:10.37,2015-01-28 03:07:00,
2015-01-27 19:12:00,51.5,45.5,30.19,NNE,32,0.0,0.0,80,0.00,CLR,,0.01,WeatherDisplay:10.37,2015-01-28 03:12:00,
2015-01-27 19:17:00,51.3,45.7,30.20,NNE,32,0.0,0.0,81,0.00,CLR,,0.01,WeatherDisplay:10.37,2015-01-28 03:17:00,
2015-01-27 19:22:00,51.0,45.4,30.20,NNE,32,0.0,0.0,81,0.00,CLR,,0.01,WeatherDisplay:10.37,2015-01-28 03:22:00,
2015-01-27 19:27:00,50.8,45.2,30.20,NNE,32,0.0,0.0,81,0.00,CLR,,0.01,WeatherDisplay:10.37,2015-01-28 03:27:00,
2015-01-27 19:32:00,50.8,45.5,30.20,NNE,32,0.0,0.0,82,0.00,CLR,,0.01,WeatherDisplay:10.37,2015-01-28 03:32:00,
2015-01-27 19:37:00,50.6,45.3,30.20,NNE,32,0.0,0.0,82,0.00,CLR,,0.01,WeatherDisplay:10.37,2015-01-28 03:37:00,
2015-01-27 19:42:00,50.4,45.1,30.20,NNE,32,0.0,0.0,82,0.00,CLR,,0.01,WeatherDisplay:10.37,2015-01-28 03:42:00,
2015-01-27 19:47:00,50.4,45.1,30.20,NNE,32,0.0,0.0,82,0.00,CLR,,0.01,WeatherDisplay:10.37,2015-01-28 03:47:00,
2015-01-27 19:52:00,50.3,45.3,30.20,NNE,32,0.0,0.0,83,0.00,CLR,,0.01,WeatherDisplay:10.37,2015-01-28 03:52:00,
2015-01-27 19:57:00,50.3,45.3,30.20,NNE,32,0.0,0.0,83,0.00,CLR,,0.01,WeatherDisplay:10.37,2015-01-28 03:57:00,
2015-01-27 20:02:00,50.3,45.3,30.20,NNE,32,0.0,0.0,83,0.00,CLR,,0.01,WeatherDisplay:10.37,2015-01-28 04:02:00,
2015-01-27 20:07:00,50.3,45.3,30.20,NNE,32,0.0,0.0,83,0.00,CLR,,0.01,WeatherDisplay:10.37,2015-01-28 04:07:00,
2015-01-27 20:12:00,50.3,45.3,30.21,NNE,32,0.0,0.0,83,0.00,CLR,,0.01,WeatherDisplay:10.37,2015-01-28 04:12:00,
2015-01-27 20:17:00,50.3,45.3,30.20,NNE,32,0.0,0.0,83,0.00,CLR,,0.01,WeatherDisplay:10.37,2015-01-28 04:17:00,
2015-01-27 20:22:00,50.1,45.1,30.20,NNE,32,0.0,0.0,83,0.00,CLR,,0.01,WeatherDisplay:10.37,2015-01-28 04:22:00,
2015-01-27 20:27:00,50.1,45.5,30.20,NNE,32,0.0,0.0,84,0.00,CLR,,0.01,WeatherDisplay:10.37,2015-01-28 04:27:00,
2015-01-27 20:32:00,50.1,45.5,30.20,NNE,32,0.0,0.0,84,0.00,CLR,,0.01,WeatherDisplay:10.37,2015-01-28 04:32:00,
2015-01-27 20:37:00,50.0,45.4,30.20,NNE,32,0.0,0.0,84,0.00,CLR,,0.01,WeatherDisplay:10.37,2015-01-28 04:37:00,
2015-01-27 20:42:00,49.8,45.2,30.20,NNE,32,0.0,0.0,84,0.00,CLR,,0.01,WeatherDisplay:10.37,2015-01-28 04:42:00,
2015-01-27 20:47:00,49.5,44.9,30.21,NNE,32,0.0,0.0,84,0.00,CLR,,0.01,WeatherDisplay:10.37,2015-01-28 04:47:00,
2015-01-27 20:52:00,49.3,44.7,30.21,NNE,32,0.0,0.0,84,0.00,CLR,,0.01,WeatherDisplay:10.37,2015-01-28 04:52:00,
2015-01-27 20:57:00,48.8,44.2,30.21,NNE,32,0.0,0.0,84,0.00,CLR,,0.01,WeatherDisplay:10.37,2015-01-28 04:57:00,